Location: Unspecified
(50.1700°N, 6.8600°E)
Time: 01:36:04
(UTC+00:00)

Cosmos 2297 Rocket - Pass Details

Date: 24 January 2019
Orbit: 841 x 842 km, 71.0° (Epoch: 17 February)

Event Time Altitude Azimuth Distance (km) Brightness Sun altitude
Exits shadow 04:24:54 14° 352° (N) 2,172 4.3 -27.4°
Maximum altitude 04:28:44 28° 44° (NE) 1,536 3.9 -26.7°
Drops below altitude 10° 04:33:33 10° 102° (ESE) 2,461 5.6 -26.0°
Sets 04:36:20 0° 114° (ESE) 3,392 6.4 -25.5°
